Solander Island, British Columbia

3:25 AM PDT on April 21, 2018 (GMT -0700)
Solander Island

Weather History for CWRU - March, 2013

Change the Weather History Date:

Friday, March 8, 2013

  Actual Average Record
Temperature  
Mean Temperature 45 °F -  
Max Temperature 49 °F - - ()
Min Temperature 41 °F - - ()
Degree Days  
Heating Degree Days 20    
Moisture  
Dew Point 38 °F    
Average Humidity 79    
Maximum Humidity 85    
Minimum Humidity 70    
Precipitation  
Precipitation 0.00 in - - ()
Sea Level Pressure  
Sea Level Pressure 30.17 in    
Wind  
Wind Speed 5 mph ()    
Max Wind Speed 13 mph    
Max Gust Speed -    
T = Trace of Precipitation, MM = Missing Value Source: Averaged Metar Reports

Daily Weather History Graph

Daily Weather History Graph

Search for Another Location

Airport or City:

Astronomy

Mar. 08, 2013 Rise Set
Actual Time 6:59 AM PST 6:26 PM PST
Civil Twilight 6:27 AM PST 6:58 PM PST
Nautical Twilight 5:49 AM PST 7:35 PM PST
Astronomical Twilight 5:11 AM PST 8:14 PM PST
Moon 5:04 AM PST (3/8) 3:14 PM PST (3/8)
Length of Visible Light 12h 31m
Length of Day
11h 26m
Waning Crescent, 11% of the Moon is Illuminated
Mar 8
Waning Crescent
Mar 11
New
Mar 19
First Quarter
Mar 27
Full
Apr 2
Last Quarter

Hourly Weather History & Observations

Time (PST) Temp. Windchill Dew Point Humidity Pressure Visibility Wind Dir Wind Speed Gust Speed Precip Events Conditions
12:00 AM 41.9 °F 39.0 °F 37.8 °F 85% 30.13 in - East 4.6 mph - N/A   Unknown
1:00 AM 41.5 °F 37.8 °F 37.2 °F 85% 30.13 in - East 5.8 mph - N/A   Unknown
2:00 AM 42.1 °F 38.4 °F 37.0 °F 82% 30.14 in - ESE 5.8 mph - N/A   Unknown
3:00 AM 41.7 °F 37.3 °F 36.7 °F 82% 30.13 in - ESE 6.9 mph - N/A   Unknown
4:00 AM 42 °F - 36 °F 74% 30.12 in - ESE 4.6 mph - -  
4:00 AM 41.5 °F 38.6 °F 36.5 °F 82% 30.12 in - ESE 4.6 mph - N/A   Unknown
5:00 AM 41.9 °F 40.0 °F 35.4 °F 78% 30.13 in - ENE 3.5 mph - N/A   Unknown
6:00 AM 42.3 °F - 34.5 °F 74% 30.13 in - WSW 1.2 mph - N/A   Unknown
7:00 AM 41.9 °F 39.0 °F 35.4 °F 78% 30.13 in - SE 4.6 mph - N/A   Unknown
8:00 AM 43.3 °F - 36.7 °F 77% 30.13 in - ESE 2.3 mph - N/A   Unknown
9:00 AM 46.0 °F - 39.7 °F 79% 30.15 in - East 1.2 mph - N/A   Unknown
10:00 AM 45 °F - 39 °F 71% 30.16 in - NNE 3.5 mph - -  
10:00 AM 45.3 °F 44.0 °F 38.7 °F 78% 30.16 in - NNE 3.5 mph - N/A   Unknown
11:00 AM 44.4 °F 42.0 °F 38.1 °F 79% 30.17 in - North 4.6 mph - N/A   Unknown
12:00 PM 45.1 °F 43.7 °F 39.2 °F 80% 30.18 in - North 3.5 mph - N/A   Unknown
1:00 PM 48.2 °F - 41.7 °F 78% 30.18 in - North 4.6 mph - N/A   Unknown
2:00 PM 45.1 °F 42.0 °F 39.4 °F 80% 30.19 in - North 5.8 mph - N/A   Unknown
3:00 PM 45.5 °F 42.5 °F 39.7 °F 80% 30.19 in - NNW 5.8 mph - N/A   Unknown
4:00 PM 46 °F - 39 °F 70% 30.19 in - NNW 5.8 mph - -  
4:00 PM 45.9 °F 42.9 °F 39.4 °F 78% 30.19 in - NNW 5.8 mph - N/A   Unknown
5:00 PM 45.5 °F 41.3 °F 38.7 °F 77% 30.20 in - NW 8.1 mph - N/A   Unknown
6:00 PM 43.2 °F 37.0 °F 37.4 °F 80% 30.21 in - NNW 11.5 mph - N/A   Unknown
7:00 PM 42.6 °F 35.9 °F 36.1 °F 78% 30.22 in - North 12.7 mph - N/A   Unknown
8:00 PM 42.8 °F 36.2 °F 35.8 °F 76% 30.23 in - NNW 12.7 mph - N/A   Unknown
9:00 PM 42.8 °F 36.2 °F 36.1 °F 77% 30.23 in - NNW 12.7 mph - N/A   Unknown
10:00 PM 42 °F - 37 °F 75% 30.24 in - NNE 9.2 mph - -  
10:00 PM 41.7 °F 36.1 °F 36.9 °F 83% 30.24 in - NNE 9.2 mph - N/A   Unknown
11:00 PM 41.7 °F 36.7 °F 37.0 °F 83% 30.24 in - North 8.1 mph - N/A   Unknown